CZ-6A DEB, 61410

Orbit data source: Space-Track

CZ-6A DEB, 61410 is space debris in LEO originally from a launch on Tue, 06 Aug 2024 UTC launched from the Taiyaun Space Center, China (TSC). Debris objects in space refer to the collection of defunct objects orbiting the Earth. Examples of debris include non-operational satellites, rocket bodies, and fragments generated from explosions, collisions, or faulty payload assembly.

Loading next visibility...
Identifier
61410, 2024-140YB
Orbit
LEO
Country
Flag of CNCN / PRC
Related business
Manufacturer
SAST
Mission
Spacecraft
Bus & Motor
Unknown
Mass
Unknown
Launch date (UTC)
2024-08-06 (2 years ago)
Launch vehicle
Unknown
Launch site
Taiyaun Space Center, China (TSC)
Object type
Payload
Rocket body
Debris
Shape & HBR
Unknown shape, 0.1 m
Radar Cross Section
Medium (>0.1 m² and <1 m²)

Expand to show TLE details & history
Last TLE update: 15 hours ago

TLE from 15 hours ago
0 CZ-6A DEB
1 61410U 24140YB  26171.24255669  .00000228  00000-0  10091-3 0  9995
2 61410  88.9991 274.2588 0047448 166.1405 194.1100 14.19038014 91900
Epoch: 2026-06-20T05:49Z
TLE epoch observation values (Epoch: 2026-06-20T05:49:16.898Z)
Latitude
-0.00003°
Longitude
-81.52159°
Altitude
864.839 km
Speed
7.403 km/s
True Right ascension
18h 17m 02s
True Declination
0° 00' 00"
Sunlit
Object was in full shadow at epoch
Visualization orbit readout
Latitude
Unknown
Longitude
Unknown
Altitude
Unknown
Speed
Unknown
Apparent Right ascension
Unknown
Apparent Declination
Unknown
Sunlit
N/A
Visualization observer readout
Local Sidereal Time
07:22:06
Azimuth
Unknown
Elevation
Unknown
Doppler factor
Unknown
Orbital elements
Apogee altitude
859.741 km
Perigee altitude
791.38 km
Semi-major axis
7,203.697 km
Eccentricity
0.00474
Inclination
88.9991°
RAAN
274.2588°
Arg. of periapsis
166.1405°
True anomaly
193.97821°
Mean anomaly
194.11°
Eccentric anomaly
194.04403°
Mean motion
3.54985 °/min
Orbital period
101.41 mins
BSTAR
0.00010091
Loading maneuver chart data...
Computing Atmospheric mass density...
Loading historical data...
Loading historical data...
Loading historical data...
Loading historical data...
Loading historical data...
Loading historical data...
Loading historical data...

Documentation

Showing up to 5 results
|